Time,TemperatureF,DewpointF,PressureIn,WindDirection,WindDirectionDegrees,WindSpeedMPH,WindSpeedGustMPH,Humidity,HourlyPrecipIn,Conditions,Clouds,dailyrainin,SoftwareType,DateUTC
2013-10-29 00:02:00,68.5,65.1,28.47,SE,135,12.0,15.0,89,0.00,,,0.00,meteohub,2013-10-29 05:02:00,
2013-10-29 00:07:00,68.7,65.3,28.47,East,90,15.0,15.0,89,0.00,,,0.00,meteohub,2013-10-29 05:07:00,
2013-10-29 00:12:00,68.7,65.3,28.46,SE,135,14.0,15.0,89,0.00,,,0.00,meteohub,2013-10-29 05:12:00,
2013-10-29 00:17:00,68.5,65.1,28.46,SE,135,11.0,15.0,89,0.00,,,0.00,meteohub,2013-10-29 05:17:00,
2013-10-29 00:22:00,68.5,65.1,28.46,East,90,12.0,15.0,89,0.00,,,0.00,meteohub,2013-10-29 05:22:00,
2013-10-29 00:27:00,68.7,65.3,28.47,East,90,8.0,14.0,89,0.00,,,0.00,meteohub,2013-10-29 05:27:00,
2013-10-29 00:32:00,68.7,65.3,28.46,NE,45,9.0,14.0,89,0.00,,,0.00,meteohub,2013-10-29 05:32:00,
2013-10-29 00:37:00,68.7,65.3,28.46,SE,135,11.0,16.0,89,0.00,,,0.00,meteohub,2013-10-29 05:37:00,
2013-10-29 00:42:00,68.5,65.1,28.46,North,0,11.0,16.0,89,0.00,,,0.00,meteohub,2013-10-29 05:42:00,
2013-10-29 00:47:00,68.7,65.3,28.46,East,90,7.0,16.0,89,0.00,,,0.00,meteohub,2013-10-29 05:47:00,
2013-10-29 00:52:00,68.9,65.5,28.46,NW,315,7.0,13.0,89,0.00,,,0.00,meteohub,2013-10-29 05:52:00,
2013-10-29 00:57:00,68.7,65.3,28.46,NE,45,11.0,13.0,89,0.00,,,0.00,meteohub,2013-10-29 05:57:00,
2013-10-29 01:02:00,68.7,65.3,28.46,NE,45,2.0,15.0,89,0.00,,,0.00,meteohub,2013-10-29 06:02:00,
2013-10-29 01:07:00,68.9,65.5,28.45,East,90,15.0,15.0,89,0.00,,,0.00,meteohub,2013-10-29 06:07:00,
2013-10-29 01:12:00,68.7,65.3,28.45,SE,135,14.0,16.0,89,0.00,,,0.00,meteohub,2013-10-29 06:12:00,
2013-10-29 01:17:00,68.7,65.3,28.45,East,90,12.0,17.0,89,0.00,,,0.00,meteohub,2013-10-29 06:17:00,
2013-10-29 01:22:00,68.7,65.7,28.45,SE,135,14.0,17.0,90,0.00,,,0.00,meteohub,2013-10-29 06:22:00,
2013-10-29 01:27:00,68.5,65.5,28.45,SE,135,13.0,19.0,90,0.00,,,0.00,meteohub,2013-10-29 06:27:00,
2013-10-29 01:32:00,68.5,65.8,28.45,East,90,12.0,19.0,91,0.00,,,0.00,meteohub,2013-10-29 06:32:00,
2013-10-29 01:37:00,68.5,65.8,28.45,SE,135,10.0,17.0,91,0.00,,,0.00,meteohub,2013-10-29 06:37:00,
2013-10-29 01:42:00,68.2,65.5,28.44,East,90,11.0,17.0,91,0.00,,,0.00,meteohub,2013-10-29 06:42:00,
2013-10-29 01:47:00,68.2,65.8,28.44,SE,135,13.0,17.0,92,0.00,,,0.00,meteohub,2013-10-29 06:47:00,
2013-10-29 01:52:00,68.0,65.7,28.44,SW,225,10.0,17.0,92,0.00,,,0.00,meteohub,2013-10-29 06:52:00,
2013-10-29 01:57:00,68.2,65.8,28.44,SE,135,13.0,17.0,92,0.00,,,0.00,meteohub,2013-10-29 06:57:00,
2013-10-29 02:02:00,68.0,65.8,28.44,East,90,9.0,13.0,93,0.00,,,0.00,meteohub,2013-10-29 07:02:00,
2013-10-29 02:07:00,68.2,66.0,28.44,East,90,10.0,13.0,93,0.00,,,0.00,meteohub,2013-10-29 07:07:00,
2013-10-29 02:12:00,68.2,66.0,28.44,East,90,2.0,15.0,93,0.00,,,0.00,meteohub,2013-10-29 07:12:00,
2013-10-29 02:17:00,68.2,66.0,28.43,South,180,8.0,15.0,93,0.00,,,0.00,meteohub,2013-10-29 07:17:00,
2013-10-29 02:22:00,68.2,66.0,28.43,SSE,158,16.0,16.0,93,0.00,,,0.00,meteohub,2013-10-29 07:22:00,
2013-10-29 02:27:00,68.4,66.2,28.44,ESE,113,8.0,16.0,93,0.00,,,0.00,meteohub,2013-10-29 07:27:00,
2013-10-29 02:32:00,68.0,65.8,28.43,SE,135,13.0,16.0,93,0.00,,,0.00,meteohub,2013-10-29 07:32:00,
2013-10-29 02:37:00,68.2,66.0,28.44,East,90,8.0,16.0,93,0.00,,,0.00,meteohub,2013-10-29 07:37:00,
2013-10-29 02:42:00,68.2,66.0,28.44,NE,45,10.0,15.0,93,0.00,,,0.00,meteohub,2013-10-29 07:42:00,